Location: Coed Ely
(51.5661°N, 3.4150°W)
Time: 01:16:57
(UTC+00:00)

ERS-2 - Pass Details

Date: 28 January 2021
Orbit: 492 x 497 km, 98.6° (Epoch: 28 February)

Event Time Altitude Azimuth Distance (km) Brightness Sun altitude
Exits shadow 19:33:14 25° 344° (NNW) 1,038 3.8 -24.3°
Maximum altitude 19:34:50 39° 293° (WNW) 755 3.4 -24.5°
Drops below altitude 10° 19:38:13 10° 223° (SW) 1,686 5.3 -25.0°
Sets 19:40:22 0° 216° (SW) 2,564 6.2 -25.4°
